www.pogodaiklimat.ru

Погода и климат >> Архив погоды >> Россия >> Краснодарский край >> Приморско-Ахтарск


АРХИВ ПОГОДЫ в Приморско-Ахтарске

Время (UTC), дата Ветер
(напр.,м/с)
 
Видим.   Явления Облачность Т
(С)
Тd
(С)
f
(%)
Тe
(С)
Тes
(С)
Комфортность P
(гПа)
Po
(гПа)
Тmin
(С)
Tmax
(С)
R
(мм)
R24
(мм)
S
(см)
09 9.07 З 3
{10}
10 км 6/6 600 м
[Cu hum]
+25.3 +10.0 38 +26 +32 жарко 1010.6 1010.2
12 9.07 З 3
{11}
10 км 8/4 600 м
[Cu hum Ci]
+25.2 +7.4 32 +25 +31 комфорт 1011.3 1010.9
15 9.07 З 3
{10}
10 км 10/3 600 м
[Cu hum Ac trans Ci]
+24.7 +10.5 41 +26 +27 жарко 1011.0 1010.5 +25.7
18 9.07 З 1 10 км 1/1 600 м
[Cu hum]
+21.7 +10.2 48 +23 +23 комфорт 1011.3 1010.8
21 9.07 СЗ 2 10 км ясно +23.2 +9.6 42 +25 +25 комфорт 1010.6 1010.2
00 10.07 Ю 1 10 км 10/0
[Ac und]
+19.8 +15.2 75 +23 +23 комфорт 1009.7 1009.3
03 10.07 Ю 1 10 км 10/10 600 м
[Sc]
+19.5 +13.4 68 +22 +22 комфорт 1008.6 1008.2 +19.2
06 10.07 СЗ 1 10 км слаб. ливневой дождь 10/10 600 м
[Cb calv]
+17.9 +15.6 86 +19 +19 очень
холодно
1009.6 1009.1 +17.4
09 10.07 Ю 2 10 км {ливн. осадки} 8/0
[Ac trans]
+20.7 +15.2 71 +24 +34 комфорт 1009.0 1008.6
12 10.07 Ю 1 10 км {ливн. осадки} 8/6 600 м
[Cb calv Ac cast]
+23.0 +15.9 64 +27 +31 душно 1008.0 1007.6
15 10.07 З 1 10 км 9/4 600 м
[Cu hum Ac lent]
+23.2 +15.8 63 +28 +28 душно 1007.7 1007.2 +24.4 4
18 10.07 Ю 1 10 км ясно +20.0 +15.7 76 +24 +24 комфорт 1007.7 1007.2
21 10.07 Ю 1 4000 м дымка ясно +18.3 +16.3 88 +20 +20 прохладно 1007.2 1006.8
00 11.07 штиль 0 4000 м дымка 10/0
[Ci sp]
+18.0 +16.3 90 +18 +18 прохладно 1006.2 1005.7
03 11.07 ЮВ 1 4000 м дымка 10/10 600 м
[Sc]
+18.3 +16.4 89 +20 +20 прохладно 1005.7 1005.2 +17.5
06 11.07 Ю 1 10 км 10/10 600 м
[Cb calv]
+20.3 +16.7 80 +24 +24 комфорт 1006.0 1005.5
09 11.07 Ю 1 10 км 10/10 600 м
[Sc diur, vesp]
+20.9 +15.6 72 +25 +25 комфорт 1006.3 1005.9
12 11.07 Ю 2 10 км 10/10 600 м
[Cb calv]
+21.4 +12.7 58 +24 +24 комфорт 1006.3 1005.8
15 11.07 Ю 1 10 км 10/8 600 м
[Cb calv Ac trans]
+20.8 +12.2 58 +24 +24 комфорт 1006.4 1005.9 +22.4
18 11.07 штиль 0 10 км 10/5 600 м
[Cb calv As trans]
+18.3 +12.8 70 +19 +19 холодно 1006.6 1006.2
21 11.07 штиль 0 10 км 10/0
[Ac As]
+17.7 +14.4 81 +18 +18 холодно 1006.6 1006.1
00 12.07 Ю 1 н/о н/о +17.1 +13.8 81 +18 +18 прохладно 1006.6 1006.1
03 12.07 З 1 10 км 10/10 600 м
[Cb calv]
+17.3 +14.4 83 +18 +18 холодно 1007.4 1006.9 +16.8
06 12.07 Ю 2 10 км {ливн. осадки} 8/6 600 м
[Cu Sc Ac trans]
+20.2 +13.5 65 +23 +26 комфорт 1008.1 1007.6 +16.8
09 12.07 ЮЗ 2 10 км 5/5 600 м
[Cu Sc]
+24.1 +12.9 50 +26 +35 жарко 1008.2 1007.7
12 12.07 ЮЗ 1 10 км 10/3 600 м
[Cu med, cong Ci fib]
+25.6 +13.4 47 +28 +36 жарко 1008.1 1007.6
15 12.07 З 1 10 км 10/1 600 м
[Cu med, cong Ci fib]
+25.0 +12.8 47 +27 +29 жарко 1008.1 1007.7 +26.1 0.3
18 12.07 З 1 10 км 3/1 600 м
[Cu hum Ci fib]
+20.8 +14.2 66 +25 +25 комфорт 1008.9 1008.4
21 12.07 З 1 10 км 8/0
[Ac trans]
+21.0 +13.8 63 +25 +25 комфорт 1008.6 1008.1
00 13.07 штиль 0 10 км 10/10 600 м
[Cb calv]
+19.1 +15.6 80 +20 +20 прохладно 1007.5 1007.0
03 13.07 СВ 1
{15}
10 км слаб. ливневой дождь {гроза} 10/10 600 м
[Cb calv]
+15.8 +13.9 88 +16 +16 очень
холодно
1009.0 1008.5 +15.7 14
06 13.07 В 2 10 км в посл. час ливневой дождь {гроза} 10/10 600 м
[Cb calv]
+17.2 +14.2 83 +18 +18 очень
холодно
1009.3 1008.8 +15.5
09 13.07 СЗ 2 10 км 10/8 600 м
[Cb calv Ac trans]
+21.5 +14.0 62 +24 +26 комфорт 1009.9 1009.4
12 13.07 З 1 10 км 10/4 600 м
[Cu med, cong Ac trans Ci fib]
+24.0 +13.5 52 +26 +31 жарко 1009.8 1009.4
15 13.07 З 2 10 км 4/3 600 м
[Cu med, cong Ci fib]
+23.2 +13.4 54 +26 +28 жарко 1010.2 1009.7 +24.5 2
18 13.07 ЮЗ 1 10 км ясно +19.3 +13.5 69 +22 +22 комфорт 1010.7 1010.2
21 13.07 Ю 1 10 км ясно +18.3 +14.1 76 +20 +20 прохладно 1010.5 1010.0
00 14.07 ЮВ 1 4000 м дымка ясно +16.9 +15.2 90 +18 +18 прохладно 1010.0 1009.5
03 14.07 штиль 0 4000 м дымка 3/3 600 м
[Cu med, cong]
+16.6 +15.5 93 +16 +17 очень
холодно
1010.0 1009.5 +15.8
06 14.07 Ю 1 10 км 1/0
[Ac trans]
+23.6 +15.2 59 +26 +37 жарко 1010.1 1009.6
09 14.07 ЮЗ 1 10 км 3/3 600 м
[Cu med, cong]
+25.5 +12.1 43 +27 +42 жарко 1009.6 1009.1
12 14.07 С 2 10 км 4/3 600 м
[Cb calv Ci fib]
+25.4 +15.2 53 +28 +37 жарко 1009.1 1008.7
15 14.07 СЗ 2 10 км 3/0
[Ci fib]
+25.0 +13.5 49 +27 +30 жарко 1008.4 1008.0 +26.0
18 14.07 С 2 10 км 10/0
[Ac As Ci fib]
+23.3 +13.9 55 +27 +27 душно 1008.3 1007.9
21 14.07 СВ 2 10 км 10/0
[Ci fib]
+20.7 +14.6 68 +24 +24 комфорт 1007.6 1007.1
00 15.07 В 2 10 км 10/0
[Ci fib]
+19.4 +13.9 70 +21 +21 комфорт 1006.3 1005.8
03 15.07 СВ 3 10 км 8/0
[Ci fib]
+18.9 +14.1 74 +20 +21 прохладно 1005.7 1005.2 +18.3
06 15.07 В 3 10 км 10/0
[Ci fib]
+24.4 +12.5 47 +26 +33 жарко 1005.7 1005.3
09 15.07 В 3 10 км 10/8 600 м
[Cu med, cong Ci fib]
+27.7 +10.9 35 +28 +31 жарко 1004.5 1004.0
12 15.07 В 2 10 км 10/6 600 м
[Cu med, cong Ac trans Ci fib]
+27.1 +10.4 35 +28 +30 жарко 1004.0 1003.6
15 15.07 Ю 2 10 км слаб. ливневой дождь 10/10 600 м
[Cb calv]
+20.0 +17.5 86 +24 +24 комфорт 1006.1 1005.6 +28.1 0.3
18 15.07 В 1 4000 м слаб. ливневой дождь 10/10 600 м
[Cb calv]
+18.6 +16.5 88 +21 +21 комфорт 1006.2 1005.7
21 15.07 СВ 3 4000 м слаб. ливневой дождь 10/10 600 м
[Cb calv]
+16.5 +15.2 92 +16 +16 очень
холодно
1005.9 1005.4
00 16.07 В 2 4000 м дымка {ливн. осадки} 10/10 600 м
[Cb calv]
+17.4 +15.5 89 +18 +18 прохладно 1004.5 1004.0
03 16.07 В 3 4000 м дымка 10/10 600 м
[Cb calv]
+17.4 +16.0 91 +17 +17 очень
холодно
1004.3 1003.8 +16.4 26
06 16.07 Ю 2 10 км 10/10 600 м
[Cb calv]
+19.7 +15.7 78 +22 +22 комфорт 1003.8 1003.4

 

Местоположение метеостанции Приморско-Ахтарск (Краснодарский край, Россия): широта 46.03 долгота 38.15 высота над уровнем моря 4 м.

В архиве по умолчанию представлена погода в Приморско-Ахтарске за последнюю неделю. Архивные данные за месяц целиком и за предыдущие месяцы, начиная с января 2011 года, Вы можете получить, выбрав интересующий диапазон дат из раскрывающегося списка и нажав кнопку "Ввод!".


*Определитесь, кто Вы:
робот инопланетянин человек

Внимание! Время в таблицах - всемирное. Для получения местного времени необходимо прибавить поправку, которая равна 3 ч.

Смотрите также архив погоды в соседних городах и на ближайших метеорологических станциях:

Погода в Каневской (Краснодарский край, Россия) (63 км)
Погода в Тимашевске (Краснодарский край, Россия) (75 км)
Погода в Должанке (Краснодарский край, Россия) (79 км)
Погода в Славянске-на-Кубани (Краснодарский край, Россия) (83 км)
Погода в Ейске (Краснодарский край, Россия) (86 км)
Погода в Староминская (Краснодарский край, Россия) (87 км)
Погода в Темрюке (Краснодарский край, Россия) (99 км)
Погода в Маргаритово (Ростовская область, Россия) (114 км)
Погода в Кореновске (Краснодарский край, Россия) (121 км)
Погода в Мариуполе (Донецкая область, Украина) (122 км)

Пояснения к столбцам:

Ветер - указаны скорость ветра в м/с - средняя за 10 мин, порывы в срок и между сроками (в фигурных скобках) и направление, откуда дует ветер: С - северный, СВ - северо-восточный, В - восточный, ЮВ - юго-восточный, Ю - южный, ЮЗ - юго-западный, З - западный, СЗ - северо-западный.
Видимость - горизонтальная дальность видимости в метрах или километрах. При видимости от 1 до 10 км при отсутствии осадков обычно наблюдается дымка, при ухудшении видимости до 1 км и менее - туман. В сухую погоду видимость может ухудшаться дымом, пылью или мглою.
Явления - указаны атмосферные явления, наблюдавшиеся в срок или в последний час перед сроком; фигурными скобками обозначены явления, наблюдавшиеся между сроками (за 1-3 часа до срока); квадратными скобками обозначены град или гололедные отложения с указанием их диаметра в мм.
Облачность - указаны через наклонную черту общая и нижняя облачность в баллах и высота нижней границы облаков в метрах; квадратными скобками обозначены формы облаков: Ci - перистые, Cs - перисто-слоистые, Cc - перисто-кучевые, Ac - высококучевые, As - высокослоистые, Sc - слоисто-кучевые, Ns - слоисто-дождевые, Cu - кучевые, Cb - кучево-дождевые. Подробнее классификацию облаков см. в Атласе облаков (PDF).
T - Температура воздуха - температура, измеренная на высоте 2 м над землей.
Td - Температура точки росы - температура, при понижении до которой содержащийся в воздухе водяной пар достигнет насыщения.
f - Относительная влажность воздуха - влажноcть воздуха, измеренная на высоте 2 м над землей.
Te - Эффективная температура - температура, которую ощущает одетый по сезону человек в тени. Характеристика душности погоды. При расчете учитывается влияние влажности воздуха и скорости ветра на теплоощущения человека.
Tes - Эффективная температура на солнце - температура, которую ощущает человек, с поправкой на солнечный нагрев. Характеристика знойности погоды. Зависит от высоты солнца над горизонтом, облачности и скорости ветра. Ночью, в пасмурную погоду, а также при ветре 12 м/с и более поправка равна нулю.
P - Атмосферное давление - приведенное к уровню моря атмосферное давление.
Po - Атмосферное давление - измеренное на уровне метеостанции атмосферное давление.
Tmin - Минимальная температура - минимум температуры воздуха на высоте 2 м над землей.
Tmax - Максимальная температура - максимум температуры воздуха на высоте 2 м над землей.
R - Количество осадков - Количество выпавших осадков за период времени, мм. При наведении курсора мыши на число - период времени, за который выпало указанное количество осадков.
R24 - Количество осадков - Количество выпавших осадков за 24 часа, мм.
S - Снежный покров - Высота снежного покрова, см. При наведении курсора мыши на число - состояние снежного покрова и степень покрытия местности в баллах.